Погода в Любашёвке

Украина / Одесская область     47°50′08″N   30°15′50″E
темп.,
°C
ветер,
м/с
пор.,
м/с
влажн.,
%
обл.,
%
осадки,
мм/ч
давл.,
гПа
погр.,
м
19 января, вт
вт1923:00−13сз457681 0.0 1022553
02:00−14зсз357986 0.0 1023426
05:00−14зсз47793 0.0 1023489
08:00−14сз367922 0.0 1023431
11:00−12зсз35670 0.0 1024517
14:00−9зсз35603 0.0 1022621
17:00−10з22640 0.0 102325
20:00−11зюз11660 0.0 102221
20 января, ср
ср2023:00−11ююв12700 0.0 102321
02:00−11ююв23790 0.0 102333
05:00−11юв348346 0.0 102295
08:00−10юв478362 0.0 1023215
11:00−7юв478053 0.0 1023298
14:00−4юв588551 0.0 1022467
17:00−5юв479495 0.0 1022239
20:00−7юв489894 0.0 1023189
21 января, чт
чт2123:00−5юв489993 0.0 1023196
02:00−3ююв489894 0.0 1022274
05:00−2ююв4898100 0.0 1022267
08:00−4ююв489996 0.0 1022177
11:000ююв488231 0.0 1022285
14:00+2ююв588115 0.0 1020361
17:00−1ююв47920 0.0 1020115
20:00−1ю47920 0.0 1020141
22 января, пт
пт2223:00−2ю47930 0.0 1020125
02:00−2ю49910 0.0 1019168
05:00−2ю4108752 0.0 1018176
08:00−1ю4108945 0.0 1018169
11:00+3ю5107921 0.0 1017355
14:00+5ю5107054 0.0 1015354
17:00+2ююв41187100 0.0 1013231
20:00+2ю6129075 0.0 1013288
23 января, сб
сб2323:00+1ю5129159 0.0 1012254
02:00+1ю6119163 0.0 1011269
05:00+1ю41089100 0.0 1010213
08:00+1ю51287100 0.0 1011244
11:00+5ююз6107697 0.0 1010325
14:00+6ю487998 0.0 1010359
17:00+3ююв4791100 0.0 1009117
20:00+3ююв51298100 0.0 1009220